Weather History for KE38 - October, 2013

Change the Weather History Date:

Saturday, October 12, 2013

  Actual Average (KMRF) Record (KMRF)
Temperature  
Mean Temperature 62 °F -  
Max Temperature 80 °F 73 °F 86 °F (2007)
Min Temperature 45 °F 44 °F 39 °F (2005)
Degree Days  
Heating Degree Days 2    
Growing Degree Days 12 (Base 50)    
Moisture  
Dew Point 44 °F    
Average Humidity 51    
Maximum Humidity 78    
Minimum Humidity 29    
Precipitation  
Precipitation 0.00 in - - ()
Sea Level Pressure  
Sea Level Pressure 30.16 in    
Wind  
Wind Speed 4 mph (East)    
Max Wind Speed 13 mph    
Max Gust Speed 18 mph    
Visibility 10 miles    
Events      
Averages and records for this station are not official NWS values.
T = Trace of Precipitation, MM = Missing Value Source: NWS Daily Summary

Daily Weather History Graph

Daily Weather History Graph

Search for Another Location

Airport or City:

Trip Planner

Search our weather history database for the weather conditions in past years. The results will help you decide how hot, cold, wet, or windy it might be!

Date:

Astronomy

Oct. 12, 2013 Rise Set
Actual Time 7:55 AM CDT 7:26 PM CDT
Civil Twilight 7:31 AM CDT 7:50 PM CDT
Nautical Twilight 7:03 AM CDT 8:18 PM CDT
Astronomical Twilight 6:35 AM CDT 8:46 PM CDT
Moon 3:14 PM CDT (10/12) 1:26 AM CDT (10/12)
Length of Visible Light 12h 19m
Length of Day
11h 31m
First Quarter, 59% of the Moon is Illuminated
Oct 12
First Quarter
Oct 18
Full
Oct 26
Last Quarter
Nov 3
New
Nov 9
First Quarter

Hourly Weather History & Observations

Time (CDT) Temp. Windchill Dew Point Humidity Pressure Visibility Wind Dir Wind Speed Gust Speed Precip Events Conditions
12:15 AM 57.2 °F - 28.0 °F 33% 30.11 in 10.0 mi Calm Calm - N/A   Clear
12:35 AM 54.3 °F - 27.5 °F 36% 30.11 in 10.0 mi Calm Calm - N/A   Clear
12:55 AM 52.5 °F - 27.9 °F 39% 30.11 in 10.0 mi WSW 4.6 mph - N/A   Clear
1:15 AM 51.1 °F - 28.9 °F 43% 30.11 in 10.0 mi NNW 5.8 mph - N/A   Clear
1:35 AM 54.5 °F - 31.3 °F 41% 30.11 in 10.0 mi NW 3.5 mph - N/A   Clear
1:55 AM 52.9 °F - 32.0 °F 45% 30.12 in 10.0 mi WSW 3.5 mph - N/A   Clear
2:15 AM 50.7 °F - 32.2 °F 49% 30.12 in 10.0 mi Calm Calm - N/A   Clear
2:35 AM 51.1 °F - 34.0 °F 52% 30.12 in 10.0 mi South 4.6 mph - N/A   Clear
2:55 AM 52.2 °F - 36.9 °F 56% 30.12 in 10.0 mi Calm Calm - N/A   Clear
3:15 AM 50.5 °F - 36.9 °F 59% 30.12 in 10.0 mi SSW 4.6 mph - N/A   Clear
3:35 AM 50.0 °F - 38.3 °F 64% 30.11 in 10.0 mi SW 4.6 mph - N/A   Clear
3:55 AM 48.9 °F - 39.0 °F 69% 30.11 in 10.0 mi SW 3.5 mph - N/A   Clear
4:15 AM 47.8 °F - 37.9 °F 69% 30.11 in 10.0 mi SSW 5.8 mph - N/A   Clear
4:35 AM 48.6 °F - 37.9 °F 67% 30.12 in 10.0 mi SW 5.8 mph - N/A   Clear
4:55 AM 49.6 °F - 39.6 °F 68% 30.12 in 10.0 mi WSW 5.8 mph - N/A   Clear
5:15 AM 48.6 °F - 39.0 °F 70% 30.12 in 10.0 mi SW 3.5 mph - N/A   Clear
5:35 AM 47.3 °F - 38.7 °F 72% 30.13 in 10.0 mi SW 6.9 mph - N/A   Clear
5:55 AM 47.1 °F - 38.5 °F 72% 30.13 in 10.0 mi WSW 5.8 mph - N/A   Clear
6:15 AM 47.5 °F - 38.5 °F 71% 30.14 in 10.0 mi SW 5.8 mph - N/A   Clear
6:35 AM 46.8 °F - 38.3 °F 72% 30.15 in 10.0 mi SW 4.6 mph - N/A   Clear
6:55 AM 46.2 °F 42.2 °F 37.4 °F 71% 30.15 in 10.0 mi West 8.1 mph - N/A   Clear
7:15 AM 46.4 °F 43.5 °F 37.2 °F 70% 30.15 in 10.0 mi SW 5.8 mph - N/A   Clear
7:35 AM 45.5 °F 42.5 °F 36.9 °F 72% 30.16 in 10.0 mi SSW 5.8 mph - N/A   Clear
7:55 AM 45.7 °F 42.7 °F 36.9 °F 71% 30.17 in 10.0 mi WSW 5.8 mph - N/A   Clear
8:15 AM 47.5 °F - 37.0 °F 67% 30.18 in 10.0 mi Calm Calm - N/A   Clear
8:35 AM 51.1 °F - 37.6 °F 60% 30.18 in 10.0 mi SSW 4.6 mph - N/A   Clear
8:55 AM 56.3 °F - 38.7 °F 52% 30.19 in 10.0 mi Calm Calm - N/A   Clear
9:15 AM 61.2 °F - 39.2 °F 44% 30.20 in 7.0 mi Calm Calm - N/A   Clear
9:35 AM 64.8 °F - 40.3 °F 41% 30.21 in 10.0 mi Calm Calm - N/A   Clear
9:55 AM 66.4 °F - 43.2 °F 43% 30.21 in 10.0 mi ENE 4.6 mph - N/A   Clear
10:15 AM 67.5 °F - 44.8 °F 44% 30.22 in 10.0 mi Calm Calm - N/A   Clear
10:35 AM 68.4 °F - 49.3 °F 50% 30.22 in 10.0 mi NE 4.6 mph - N/A   Scattered Clouds
10:55 AM 68.7 °F - 49.3 °F 50% 30.22 in 10.0 mi ENE 6.9 mph - N/A   Scattered Clouds
11:15 AM 69.4 °F - 48.2 °F 47% 30.22 in 10.0 mi ENE 4.6 mph - N/A   Clear
11:35 AM 70.2 °F - 49.3 °F 47% 30.21 in 10.0 mi East 3.5 mph - N/A   Clear
11:55 AM 72.3 °F - 46.6 °F 40% 30.21 in 10.0 mi East 6.9 mph - N/A   Clear
12:15 PM 72.5 °F - 50.2 °F 45% 30.20 in 10.0 mi East 9.2 mph - N/A   Clear
12:35 PM 74.3 °F - 47.5 °F 39% 30.20 in 10.0 mi ENE 6.9 mph - N/A   Clear
12:55 PM 75.6 °F - 46.4 °F 35% 30.19 in 10.0 mi NE 6.9 mph - N/A   Clear
1:15 PM 76.3 °F - 47.1 °F 36% 30.19 in 10.0 mi ENE 5.8 mph - N/A   Clear
1:35 PM 77.2 °F - 46.9 °F 34% 30.18 in 10.0 mi East 6.9 mph - N/A   Clear
1:55 PM 77.2 °F - 46.6 °F 34% 30.17 in 10.0 mi NE 8.1 mph - N/A   Clear
2:15 PM 78.8 °F - 46.4 °F 32% 30.16 in 10.0 mi ENE 6.9 mph 17.3 mph N/A   Clear
2:35 PM 79.5 °F - 46.2 °F 31% 30.15 in 10.0 mi NNE 8.1 mph - N/A   Clear
2:55 PM 79.3 °F - 45.9 °F 31% 30.15 in 10.0 mi East 10.4 mph 16.1 mph N/A   Clear
3:15 PM 80.1 °F - 45.7 °F 30% 30.13 in 10.0 mi NE 10.4 mph 16.1 mph N/A   Clear
3:35 PM 79.3 °F - 44.6 °F 29% 30.13 in 10.0 mi NE 11.5 mph 18.4 mph N/A   Clear
3:55 PM 79.3 °F - 45.0 °F 30% 30.13 in 10.0 mi ENE 12.7 mph - N/A   Scattered Clouds
4:15 PM 78.4 °F - 45.0 °F 30% 30.14 in 10.0 mi NE 12.7 mph 17.3 mph N/A   Scattered Clouds
4:35 PM 77.5 °F - 44.4 °F 31% 30.13 in 10.0 mi NE 11.5 mph - N/A   Mostly Cloudy
4:55 PM 77.0 °F - 44.6 °F 32% 30.13 in 10.0 mi ENE 12.7 mph - N/A   Scattered Clouds
5:15 PM 76.6 °F - 45.1 °F 33% 30.13 in 10.0 mi NE 3.5 mph - N/A   Scattered Clouds
5:35 PM 77.7 °F - 46.4 °F 33% 30.13 in 10.0 mi Calm Calm - N/A   Scattered Clouds
5:55 PM 78.6 °F - 46.9 °F 33% 30.13 in 10.0 mi NE 3.5 mph - N/A   Clear
6:15 PM 77.2 °F - 48.2 °F 36% 30.13 in 10.0 mi ENE 6.9 mph - N/A   Clear
6:35 PM 77.4 °F - 48.9 °F 37% 30.13 in 10.0 mi NE 6.9 mph - N/A   Clear
6:55 PM 77.0 °F - 49.5 °F 38% 30.13 in 10.0 mi ENE 4.6 mph - N/A   Clear
7:15 PM 74.5 °F - 49.6 °F 42% 30.14 in 10.0 mi East 8.1 mph - N/A   Clear
7:35 PM 73.8 °F - 51.6 °F 46% 30.15 in 10.0 mi ESE 4.6 mph - N/A   Clear
7:55 PM 73.4 °F - 52.0 °F 47% 30.15 in 10.0 mi SE 8.1 mph - N/A   Clear
8:15 PM 72.7 °F - 52.3 °F 49% 30.15 in 10.0 mi ESE 5.8 mph - N/A   Clear
8:35 PM 72.0 °F - 54.3 °F 54% 30.15 in 10.0 mi ESE 5.8 mph - N/A   Clear
8:55 PM 71.4 °F - 55.6 °F 57% 30.16 in 10.0 mi ESE 3.5 mph - N/A   Clear
9:15 PM 71.2 °F - 57.2 °F 61% 30.17 in 10.0 mi ESE 6.9 mph - N/A   Clear
9:35 PM 71.1 °F - 57.6 °F 62% 30.18 in 10.0 mi SE 6.9 mph - N/A   Clear
9:55 PM 70.2 °F - 58.1 °F 65% 30.19 in 10.0 mi SE 4.6 mph - N/A   Clear
10:15 PM 69.4 °F - 58.5 °F 68% 30.19 in 10.0 mi East 3.5 mph - N/A   Clear
10:35 PM 69.3 °F - 59.2 °F 70% 30.19 in 10.0 mi ENE 4.6 mph - N/A   Clear
10:55 PM 69.1 °F - 60.1 °F 73% 30.19 in 10.0 mi SE 9.2 mph - N/A   Clear
11:15 PM 69.1 °F - 60.3 °F 73% 30.20 in 10.0 mi East 3.5 mph - N/A   Clear
11:35 PM 69.1 °F - 61.7 °F 77% 30.19 in 10.0 mi East 4.6 mph - N/A   Clear
11:55 PM 68.7 °F - 61.7 °F 78% 30.19 in 10.0 mi ESE 3.5 mph - N/A   Scattered Clouds